CST,Max TemperatureF,Mean TemperatureF,Min TemperatureF,Max Dew PointF,MeanDew PointF,Min DewpointF,Max Humidity, Mean Humidity, Min Humidity, Max Sea Level PressureIn, Mean Sea Level PressureIn, Min Sea Level PressureIn, Max VisibilityMiles, Mean VisibilityMiles, Min VisibilityMiles, Max Wind SpeedMPH, Mean Wind SpeedMPH, Max Gust SpeedMPH,PrecipitationIn, CloudCover, Events, WindDirDegrees
2013-12-1,35,32,30,30,27,25,86,78,70,30.12,30.07,29.99,10,10,9,12,5,,0.00,8,,358
2013-12-2,37,32,28,28,24,19,93,70,48,29.98,29.90,29.85,10,10,10,9,1,,0.00,7,,104
2013-12-3,37,34,30,30,28,25,93,84,65,29.87,29.84,29.82,10,5,1,15,11,24,0.14,8,,92
2013-12-4,48,40,33,45,36,30,93,90,81,29.84,29.64,29.37,10,4,1,26,8,37,0.18,8,,107
2013-12-5,37,24,10,34,11,1,87,64,49,30.16,29.83,29.46,10,10,10,26,20,38,0.09,4,,259
2013-12-6,15,10,6,3,1,0,79,68,53,30.44,30.30,30.17,10,10,10,17,13,24,0.00,2,,277
2013-12-7,10,6,3,1,-2,-6,85,66,52,30.59,30.54,30.44,10,10,10,15,12,21,0.00,1,,271
2013-12-8,23,13,3,19,6,-6,93,78,61,30.54,30.32,29.95,10,6,1,9,6,,0.00,7,,357
2013-12-9,23,12,0,19,5,-9,93,74,52,30.06,29.91,29.82,10,9,1,25,11,36,0.02,6,,267
2013-12-10,12,6,0,1,-3,-9,85,67,57,30.14,29.95,29.81,10,9,3,21,12,26,0.00,5,,250
2013-12-11,6,2,-2,-2,-7,-11,78,62,48,30.39,30.30,30.15,10,10,10,16,12,23,0.00,1,,277
2013-12-12,15,6,-2,7,-2,-11,85,68,62,30.36,30.19,30.10,10,10,5,16,11,23,0.00,5,,255
2013-12-13,15,14,12,10,5,1,86,66,57,30.30,30.22,30.11,10,10,3,15,10,20,0.00,8,,9
2013-12-14,21,18,15,19,15,10,93,85,73,30.29,30.10,29.85,10,5,2,13,8,24,0.00,8,,50
2013-12-15,15,10,5,12,2,-4,86,67,53,30.03,29.88,29.80,10,8,0,20,12,28,0.00,3,,287
2013-12-16,15,8,0,9,3,-6,92,78,62,30.10,30.02,29.89,10,9,2,14,7,20,0.00,6,,254
2013-12-17,26,19,12,19,13,7,92,81,74,29.96,29.85,29.80,10,8,1,15,9,18,0.00,7,,263
2013-12-18,28,18,8,21,11,1,80,69,58,30.02,29.87,29.70,10,10,10,17,9,23,0.00,4,,223
2013-12-19,26,20,14,21,15,7,93,78,68,30.05,29.94,29.72,10,10,2,17,9,24,0.00,6,,354
2013-12-20,26,22,19,23,18,16,93,87,80,29.97,29.89,29.80,10,5,2,18,13,22,0.00,8,,16
2013-12-21,28,26,24,25,21,19,93,84,80,29.93,29.87,29.79,10,10,5,16,11,21,0.00,8,,14
2013-12-22,28,24,19,25,19,16,93,85,80,30.07,29.89,29.77,10,5,1,18,13,24,0.00,8,,17
2013-12-23,21,16,12,18,12,5,93,78,63,30.35,30.23,30.08,10,8,3,13,9,,0.00,8,,359
2013-12-24,15,6,-4,5,0,-9,100,73,53,30.47,30.39,30.26,10,10,10,9,4,,0.00,1,,259
2013-12-25,17,14,10,12,10,5,86,78,68,30.25,30.09,30.00,10,8,1,17,10,24,0.00,8,,237
2013-12-26,17,12,8,14,7,1,86,75,62,30.19,30.12,29.98,10,10,5,10,6,,0.00,7,,268
2013-12-27,35,24,12,27,18,9,92,78,70,30.20,30.06,29.87,10,10,5,21,6,26,0.00,5,,216
2013-12-28,37,30,23,30,26,21,93,85,75,29.97,29.86,29.72,10,7,0,12,6,,0.00,2,,210
2013-12-29,30,15,0,28,6,-9,93,67,52,30.15,29.95,29.72,10,9,3,26,15,37,0.00,5,,341
2013-12-30,1,-4,-9,-9,-12,-17,78,67,55,30.25,30.17,30.09,10,10,7,13,7,18,0.00,3,,264
2013-12-31,3,-1,-5,-6,-10,-15,78,65,55,30.36,30.19,30.07,10,10,6,17,11,21,0.00,1,,286